Location: Carly
(50.6517°N, 1.7026°E)
Time: 20:36:05
(UTC+00:00)

Daily predictions for brighter satellites

Satellite Brightness Start Highest point End
(mag) Time Altitude Azimuth Time Altitude Azimuth Time Altitude Azimuth
Cosmos 2278 Rocket 2.8 18:12:55 10° SW 18:18:34 65° WNW 18:24:15 10° NNE
CZ-2C R/B 2.7 18:16:15 10° NNE 18:21:46 71° ESE 18:27:21 10° S
Cosmos 2369 Rocket 3.4 18:18:45 10° SE 18:22:40 19° E 18:26:35 10° NE
BREEZE-M DEB (TANK) 3.5 18:21:22 10° W 18:23:18 23° SSW 18:24:54 10° SSE
SL-08 RB Rocket 3.6 18:19:08 10° SSE 18:23:35 73° ENE 18:28:04 10° N
Cosmos 773 Rocket 4.4 18:19:43 10° NNW 18:24:46 45° ENE 18:29:50 10° SE
Cosmos 1400 Rocket 3.6 18:22:55 10° SSE 18:26:30 30° E 18:30:05 10° NNE
Lacrosse 4 Rocket 2.9 18:23:43 10° WSW 18:27:29 37° NW 18:31:18 10° NNE
SJ-6B 4.3 18:24:39 10° ESE 18:27:47 21° ENE 18:30:54 10° NNE
Cosmos 2221 Rocket 4.2 18:24:37 10° NNW 18:29:00 63° W 18:33:21 10° S
Cosmos 2297 4.0 18:24:29 10° S 18:29:53 47° ESE 18:35:21 10° NE
SeaSat 1 3.1 18:26:13 10° ESE 18:30:45 38° NE 18:35:19 10° NNW
Cosmos 1733 Rocket 3.1 18:27:52 10° S 18:32:11 87° W 18:36:33 10° N
Nadezhda 3 Rocket 4.2 18:28:10 10° N 18:34:07 48° ENE 18:40:03 10° SSE
CSL-04 Debris 4.4 18:29:20 10° SE 18:34:33 53° ENE 18:39:48 10° N
H-2A R/B 2.1 18:32:04 10° NNE 18:36:14 53° ESE 18:40:16 10° S
Meteor 1-21 4.4 18:30:52 10° NNW 18:36:35 82° W 18:42:11 10° S
DMSP B5D2-2 4.3 18:32:20 10° NNE 18:37:27 47° E 18:42:32 10° S
Cosmos 1238 Rocket 4.0 18:32:26 10° SSE 18:38:29 49° E 18:43:49 10° NNE
Cosmos 1674 3.1 18:37:56 10° N 18:41:27 40° ENE 18:44:59 10° SE
Cosmos 1356 Rocket 4.3 18:37:45 10° SSW 18:41:57 56° WNW 18:46:13 10° N
Cosmos 1707 2.7 18:39:29 10° N 18:43:25 89° W 18:47:19 10° S
CZ-4B R/B 1.7 18:46:14 10° NNE 18:49:05 35° E 18:51:57 10° SSE
H-2A R/B 3.9 18:45:31 10° SSW 18:50:03 33° W 18:54:44 10° NNW
IRS-1C Rocket 4.2 18:45:47 10° SSE 18:51:03 86° WSW 18:56:21 10° NNW
USA 305 3.4 18:47:55 10° WNW 18:52:05 53° N 18:55:40 14° ENE
Okean-O 2.6 18:51:00 10° SSE 18:55:26 87° ENE 18:59:55 10° NNW
USA 215 3.4 18:49:51 10° SE 18:56:26 78° SSW 19:03:02 10° WNW
Ariane Rocket 4.1 18:53:34 15° ESE 18:56:41 26° ENE 19:00:51 10° N
KORONAS-FOTON 3.7 18:52:56 10° N 18:56:42 62° ENE 19:00:26 10° SSE
Cosmos 1025 Rocket 4.0 18:54:00 10° N 18:57:47 28° ENE 19:00:13 17° ESE
ASTRO F (AKARI) 4.4 18:55:01 10° SSE 18:58:26 66° ENE 19:01:45 10° N
COSMOS 2455 3.4 18:52:59 10° NW 18:58:56 62° WSW 19:04:52 10° SSE
Cosmos 2074 Rocket 4.0 18:55:50 10° S 19:02:06 87° E 19:08:26 10° N
Cosmos 1626 2.4 18:58:43 10° N 19:02:17 44° ENE 19:05:10 14° SE
Cosmos 1538 Rocket 4.4 18:57:45 10° NNW 19:02:57 48° ENE 19:07:03 16° SE
ERBS 3.7 19:00:21 10° W 19:03:22 32° NNW 19:06:16 11° NE
USA 276 2.1 19:02:32 10° WSW 19:05:40 68° S 19:07:18 25° E
In-Cosmos 22 4.4 19:00:28 10° NNW 19:05:44 68° W 19:10:59 10° S
Cosmos 1975 Rocket 3.3 19:01:34 10° N 19:05:54 51° ENE 19:10:06 11° SSE
APEX 4.4 19:01:16 10° NNW 19:06:08 37° NE 19:08:32 21° E
USA 307 3.4 19:02:10 10° WNW 19:06:20 53° N 19:09:23 18° ENE
Cosmos 1340 4.4 19:02:52 10° NNW 19:06:20 35° W 19:09:47 10° SSW
Cosmos 1733 3.9 19:06:53 10° SSE 19:10:12 32° E 19:13:38 10° NNE
Cosmos 2341 Rocket 4.5 19:04:48 10° SSE 19:10:34 39° E 19:16:25 10° NNE
Resurs 01 Rocket 3.0 19:10:07 19° E 19:11:25 22° ENE 19:14:49 10° N
Cosmos 1346 Rocket 2.7 19:08:03 10° N 19:12:05 68° ENE 19:15:52 11° SSE
MetOp-A 4.2 19:06:45 10° SSE 19:12:08 85° WSW 19:17:32 10° NNW
USA 186 1.4 19:15:19 21° SSE 19:17:06 72° ENE 19:20:12 10° N
Cosmos 1300 Rocket 4.4 19:15:35 22° SE 19:17:18 29° E 19:21:05 10° NNE
USA 306 3.3 19:15:56 10° WNW 19:20:07 55° N 19:22:31 23° ENE
Resurs 1-3 4.1 19:18:50 24° ESE 19:20:59 41° ENE 19:25:08 10° N
CSL-04 Rocket 3.8 19:17:35 10° S 19:22:57 75° WSW 19:28:25 10° NNW
Geosat 4.1 19:20:03 10° NNE 19:25:06 80° WNW 19:30:08 10° SW
USA 308 3.3 19:21:31 10° WNW 19:25:43 55° N 19:27:57 26° ENE
Cosmos 1503 Rocket 4.3 19:21:05 10° SSW 19:26:16 71° WNW 19:31:28 10° NNE
Cosmos 1908 Rocket 4.0 19:22:20 10° SSW 19:26:48 66° WNW 19:31:16 10° N
Cosmos 158 Rocket 4.0 19:22:36 10° NNW 19:27:38 59° ENE 19:30:16 27° SE
ATLAS CENTAUR R/B 3.0 19:23:30 10° NW 19:27:48 38° WSW 19:32:16 10° S
IGS 5A 4.2 19:30:16 31° E 19:31:05 34° ENE 19:34:51 10° N
OBJECT-B 0.9 19:29:29 19° S 19:31:35 73° WSW 19:34:47 10° NNW
Cosmos 1777 Rocket 3.9 19:32:20 10° SSW 19:37:33 70° ESE 19:42:46 10° NNE
Cosmos 1184 Rocket 2.9 19:37:26 10° NNW 19:40:38 69° W 19:41:54 33° S
Cosmos 2297 Rocket 3.9 19:37:28 10° N 19:41:29 19° NE 19:43:33 16° ENE
Cosmos 1354 Rocket 4.5 19:37:06 10° SW 19:42:19 63° WNW 19:47:33 10° NNE
Lacrosse 5 rocket 2.8 19:39:23 10° WNW 19:43:32 35° SW 19:45:51 21° S
Cosmos 923 Rocket 4.3 19:39:40 10° NNW 19:44:43 47° ENE 19:46:16 36° ESE
Meteor 1-24 Rocket 3.8 19:40:16 10° N 19:45:29 51° ENE 19:47:23 35° SE
Cosmos 962 Rocket 4.4 19:39:23 10° S 19:45:33 75° E 19:51:42 10° NNE
CZ-4 R/B 4.3 19:47:36 10° SW 19:49:52 15° W 19:52:09 10° NW
ISS -3.7 19:47:01 10° W 19:50:24 73° N 19:50:41 67° NE
SJ 16-02 1.2 19:46:21 10° SSW 19:50:46 71° ESE 19:55:11 10° NNE
Cosmos 1441 Rocket 3.1 19:47:58 10° N 19:51:44 60° ENE 19:51:50 60° E
Cosmos 1315 Rocket 2.7 19:52:22 17° S 19:55:22 85° ESE 19:59:26 10° NNE
Cosmos 1833 4.2 19:51:44 10° NNW 19:57:24 83° WSW 20:00:03 33° SSE
Cosmos 1943 Rocket 3.0 19:52:15 10° SW 19:57:41 51° NW 20:03:12 10° NNE
Okean 2 Rocket 3.2 19:58:44 49° E 19:58:44 49° E 20:02:42 10° NNE
Cosmos 1680 Rocket 3.8 19:53:22 10° NNW 19:58:29 48° ENE 19:59:29 42° E
MOS 1 4.2 19:55:59 27° SSE 19:59:15 87° ENE 20:05:00 10° NNW
SPOT 1/Viking Rocket 4.0 19:59:15 40° E 19:59:56 42° ENE 20:04:47 10° N
GENESIS II 4.1 19:56:17 10° SW 20:00:07 81° NW 20:01:44 34° NE
IRS-1A Rocket 4.3 19:58:48 28° SSE 20:02:06 87° ENE 20:08:04 10° NNW
SJ-6B 3.8 19:59:16 18° SSW 20:02:07 48° W 20:06:07 10° NNW
Terra 3.7 20:03:09 16° NE 20:03:09 16° NE 20:05:30 10° NNE
Cosmos 2227 Rocket 3.8 19:59:33 10° NNW 20:03:44 20° NE 20:05:12 19° NE
SL-14 R/B 3.6 20:00:16 10° NNW 20:04:14 64° W 20:05:30 39° SSW
Meteor 2-20 4.4 19:59:30 10° NNW 20:05:40 85° W 20:09:34 24° S
Cosmos 2369 Rocket 2.2 20:00:21 10° SSW 20:06:01 81° WNW 20:11:42 10° NNE
Lacrosse 4 Rocket 4.4 20:06:12 10° NW 20:07:20 11° NNW 20:08:27 10° N
Sich 1 Rocket 3.5 20:05:16 32° S 20:07:22 84° E 20:11:56 10° NNE
SeaSat 1 3.4 20:05:07 20° S 20:08:13 43° WSW 20:12:57 10° NW
EO 1 Delta rocket 4.1 20:07:04 31° S 20:09:25 80° W 20:15:03 10° NNW
Cosmos 1805 4.3 20:08:49 10° SSW 20:12:34 46° WNW 20:16:20 10° N
Helios 1A Rocket 3.4 20:11:45 40° SSW 20:12:58 58° WSW 20:17:01 10° NNW
USA 281 3.4 20:09:27 10° NE 20:15:47 47° ESE 20:16:36 45° SE
Cosmos 2112 Rocket 4.1 20:11:28 10° NNW 20:16:40 56° ENE 20:17:07 54° E
SL-8 Rocket 3.9 20:11:12 10° S 20:17:29 88° ESE 20:23:51 10° N
ERS-1 Rocket 4.2 20:19:17 28° NE 20:19:17 28° NE 20:23:02 10° N
SL-27 R/B 3.5 20:15:49 10° NNW 20:18:03 40° NNW 20:18:03 40° NNW
Meteor 1-15 Rocket 4.3 20:15:08 10° SSW 20:20:41 73° WNW 20:26:20 10° N
CZ-4B R/B 4.4 20:19:00 10° NNW 20:20:56 16° WNW 20:22:52 10° WSW
Landsat 7 3.7 20:22:36 69° SSE 20:23:11 90° SW 20:27:59 10° NNW
Cosmos 1536 Rocket 3.5 20:20:38 10° N 20:25:05 87° W 20:25:05 87° W
MetOp-B 4.0 20:28:23 68° ESE 20:28:54 74° ENE 20:34:16 10° NNW
Cosmos 1727 Rocket 3.9 20:24:11 10° N 20:30:33 79° E 20:32:02 55° SSE
Cosmos 2151 Rocket 3.8 20:32:56 62° NNE 20:32:56 62° NNE 20:36:44 10° N
USA 305 3.2 20:28:01 10° WNW 20:31:42 65° NW 20:31:42 65° NW
Meteor 2-5 Rocket 4.1 20:28:50 10° NNW 20:34:16 58° W 20:36:33 34° SSW
Cosmos 1867 4.2 20:29:07 10° NW 20:34:20 42° NE 20:34:45 41° NE
Ariane Rocket 3.5 20:33:46 40° SSW 20:35:20 56° W 20:40:22 10° NNW
Cosmos 2263 4.4 20:29:51 10° SW 20:35:25 69° WNW 20:41:04 10° NNE
Cosmos 1025 Rocket 4.5 20:31:30 10° NNW 20:35:26 34° W 20:37:07 25° SW
Meteor 1-22 Rocket 4.2 20:34:19 41° SSW 20:36:24 87° W 20:42:17 10° NNE
Cosmos 2219 4.3 20:31:33 10° NNW 20:36:27 29° NE 20:36:42 29° NE
Cosmos 1656 Rocket 3.9 20:34:23 10° SW 20:39:56 66° WNW 20:45:26 10° NNE
USA 307 3.7 20:42:15 10° WNW 20:45:26 49° WNW 20:45:26 49° WNW
Resurs 01 Rocket 2.2 20:47:42 52° W 20:47:42 52° W 20:51:57 10° NNW
Cosmos 1726 4.5 20:50:25 19° N 20:50:25 19° N 20:51:31 10° N
CENTAUR R/B 3.9 20:57:40 27° NE 20:57:40 27° NE 21:00:49 10° NE
ARIANE 5 R/B 4.0 21:00:06 31° N 21:00:06 31° N 21:02:35 10° N
USA 306 4.3 20:55:56 10° WNW 20:58:33 36° WNW 20:58:33 36° WNW
Cosmos 2366 rocket 4.4 20:56:09 21° SSW 21:00:15 58° WNW 21:06:20 10° N
SPOT 3 Rocket 3.9 21:02:50 57° WSW 21:02:52 57° WSW 21:07:58 10° NNW
USA 308 4.5 21:01:35 10° WNW 21:04:00 33° WNW 21:04:00 33° WNW
Iridium 4 Rocket 4.4 21:04:06 10° N 21:06:50 36° NNW 21:06:50 36° NNW
NOSS 3-2 (A) 4.5 21:20:44 35° NE 21:20:44 35° NE 21:24:30 10° NE
SPOT 5 3.7 21:24:57 52° NNW 21:24:57 52° NNW 21:28:55 10° NNW
Cosmos 2297 Rocket 2.8 21:20:57 10° NNW 21:25:21 52° N 21:25:21 52° N
SJ 16-02 4.0 21:26:42 10° W 21:29:51 19° NW 21:33:00 10° N
Spot 2 Rocket 4.4 21:31:26 45° NW 21:31:26 45° NW 21:35:07 10° NNW
Terra 3.4 21:42:03 31° NNW 21:42:03 31° NNW 21:44:33 10° NNW
Cosmos 2227 Rocket 3.1 21:43:05 10° NNW 21:47:01 45° NNW 21:47:01 45° NNW
Cosmos 2369 Rocket 4.5 21:46:39 10° W 21:50:57 22° NW 21:55:14 10° NNE
USA 281 4.0 21:54:05 10° NNE 22:00:18 47° NW 22:03:24 28° WSW
Cosmos 2263 Rocket 3.9 22:01:49 10° NNW 22:05:15 26° NNE 22:05:15 26° NNE
CENTAUR R/B 3.5 22:44:46 47° NNW 22:44:48 47° NNW 22:52:06 10° NE
Cosmos 1980 Rocket 4.4 23:29:42 18° NE 23:29:42 18° NE 23:31:07 10° NNE
ATLAS 3B R/B 4.0 23:51:30 32° NE 23:51:30 32° NE 23:54:56 10° NE
Cosmos 2263 Rocket 4.4 23:45:30 10° NNW 23:46:55 18° NW 23:46:55 18° NW
